Weather History for North Adams, MA

Change the Weather History Date:

Thursday, September 19, 2013

  Actual Average Record
Temperature  
Mean Temperature 59 °F -  
Max Temperature 77 °F 69 °F 79 °F (2003)
Min Temperature 41 °F 46 °F 35 °F (2011)
Degree Days  
Heating Degree Days 6    
Growing Degree Days 9 (Base 50)    
Moisture  
Dew Point 44 °F    
Average Humidity 84    
Maximum Humidity 100    
Minimum Humidity 32    
Precipitation  
Precipitation 0.00 in - - ()
Sea Level Pressure  
Sea Level Pressure 30.16 in    
Wind  
Wind Speed 0 mph (WNW)    
Max Wind Speed 5 mph    
Max Gust Speed -    
Visibility 5 miles    
Events Fog    
Averages and records for this station are not official NWS values.
T = Trace of Precipitation, MM = Missing Value Source: NWS Daily Summary

Daily Weather History Graph

Daily Weather History Graph

Search for Another Location

Airport:

Trip Planner

Search our weather history database for the weather conditions in past years. The results will help you decide how hot, cold, wet, or windy it might be!

Date:

Astronomy

Sep. 19, 2013 Rise Set
Actual Time 6:37 AM EDT 6:54 PM EDT
Civil Twilight 6:08 AM EDT 7:23 PM EDT
Nautical Twilight 5:35 AM EDT 7:56 PM EDT
Astronomical Twilight 5:01 AM EDT 8:30 PM EDT
Moon 6:49 PM EDT (9/19) 6:44 AM EDT (9/19)
Length of Visible Light 13h 14m
Length of Day
12h 17m
Full, 100% of the Moon is Illuminated
Sep 19
Full
Sep 26
Last Quarter
Oct 4
New
Oct 11
First Quarter
Oct 18
Full

Hourly Weather History & Observations

Time (EDT) Temp. Dew Point Humidity Pressure Visibility Wind Dir Wind Speed Gust Speed Precip Events Conditions
12:52 AM 44.1 °F 42.1 °F 93% 30.20 in 10.0 mi Calm Calm - N/A   Clear
1:52 AM 43.0 °F 41.0 °F 93% 30.19 in 10.0 mi Calm Calm - N/A   Clear
2:52 AM 42.1 °F 39.0 °F 89% 30.19 in 10.0 mi Calm Calm - N/A   Clear
3:00 AM 42.8 °F 39.2 °F 87% 30.18 in 10.0 mi Calm Calm - N/A   Partly Cloudy
3:20 AM 42.8 °F 39.2 °F 87% 30.18 in 4.0 mi Calm Calm - N/A   Mostly Cloudy
3:52 AM 41.0 °F 39.9 °F 96% 30.18 in 5.0 mi Calm Calm - N/A   Overcast
4:21 AM 42.8 °F 39.2 °F 87% 30.18 in 1.8 mi Calm Calm - N/A   Overcast
4:25 AM 42.8 °F 39.2 °F 87% 30.18 in 0.8 mi Calm Calm - N/A   Mist
4:31 AM 42.8 °F 39.2 °F 87% 30.18 in 0.2 mi Calm Calm - N/A Fog Fog
4:41 AM 41.0 °F 39.2 °F 93% 30.18 in 0.2 mi Calm Calm - N/A Fog Fog
4:52 AM 41.0 °F 39.9 °F 96% 30.19 in 0.2 mi Calm Calm - N/A Fog Fog
5:03 AM 42.8 °F 39.2 °F 87% 30.18 in 0.5 mi Calm Calm - N/A Fog Fog
5:27 AM 42.8 °F 41.0 °F 93% 30.17 in 0.2 mi Calm Calm - N/A Fog Fog
5:36 AM 42.8 °F 41.0 °F 93% 30.17 in 0.5 mi Calm Calm - N/A Fog Fog
5:52 AM 43.0 °F 42.1 °F 97% 30.19 in 0.5 mi Calm Calm - N/A Fog Fog
6:00 AM 42.8 °F 42.8 °F 100% 30.18 in 0.2 mi Calm Calm - N/A Fog Fog
6:10 AM 42.8 °F 42.8 °F 100% 30.18 in 0.5 mi Calm Calm - N/A Fog Fog
6:26 AM 42.8 °F 42.8 °F 100% 30.18 in 0.2 mi Calm Calm - N/A Fog Fog
6:44 AM 42.8 °F 42.8 °F 100% 30.19 in 0.5 mi Calm Calm - N/A Fog Fog
6:52 AM 44.1 °F 43.0 °F 96% 30.20 in 0.5 mi Calm Calm - N/A Fog Fog
6:59 AM 42.8 °F 42.8 °F 100% 30.19 in 0.2 mi Calm Calm - N/A Fog Fog
7:52 AM 43.0 °F 43.0 °F 100% 30.20 in 0.2 mi Calm Calm - N/A Fog Fog
8:10 AM 44.6 °F 44.6 °F 100% 30.19 in 0.2 mi Calm Calm - N/A Fog Fog
8:48 AM 44.6 °F 44.6 °F 100% 30.17 in 1.0 mi Calm Calm - N/A   Overcast
8:49 AM 46.0 °F 45.0 °F 96% 30.19 in 1.2 mi Calm Calm - N/A   Overcast
9:00 AM 46.4 °F 44.6 °F 93% 30.17 in 0.5 mi Calm Calm - N/A Fog Fog
9:07 AM 48.2 °F 46.4 °F 93% 30.17 in 1.8 mi Calm Calm - N/A   Mostly Cloudy
9:14 AM 48.2 °F 46.4 °F 93% 30.17 in 10.0 mi Calm Calm - N/A   Mostly Cloudy
9:22 AM 48.2 °F 46.4 °F 93% 30.17 in 10.0 mi Calm Calm - N/A   Scattered Clouds
9:52 AM 51.1 °F 46.9 °F 86% 30.19 in 10.0 mi Calm Calm - N/A   Clear
10:52 AM 63.0 °F 46.9 °F 56% 30.17 in 10.0 mi Calm Calm - N/A   Clear
11:52 AM 68.0 °F 45.0 °F 43% 30.15 in 10.0 mi NW 3.5 mph - N/A   Clear
12:52 PM 71.1 °F 46.9 °F 42% 30.14 in 10.0 mi Calm Calm - N/A   Clear
1:52 PM 73.0 °F 44.1 °F 35% 30.10 in 10.0 mi Calm Calm - N/A   Clear
2:52 PM 75.0 °F 43.0 °F 32% 30.08 in 10.0 mi Calm Calm - N/A   Clear
3:52 PM 77.0 °F 46.0 °F 33% 30.06 in 10.0 mi North 3.5 mph - N/A   Clear
4:52 PM 73.9 °F 50.0 °F 43% 30.06 in 10.0 mi Calm Calm - N/A   Clear
5:52 PM 70.0 °F 53.1 °F 55% 30.06 in 10.0 mi SW 4.6 mph - N/A   Clear
6:52 PM 62.1 °F 55.9 °F 80% 30.08 in 10.0 mi Calm Calm - N/A   Clear
7:52 PM 57.0 °F 54.0 °F 89% 30.10 in 10.0 mi Calm Calm - N/A   Clear
8:52 PM 53.1 °F 51.1 °F 93% 30.12 in 10.0 mi Calm Calm - N/A   Clear
9:52 PM 50.0 °F 48.0 °F 93% 30.12 in 10.0 mi Calm Calm - N/A   Clear
10:52 PM 50.0 °F 46.9 °F 89% 30.11 in 10.0 mi Calm Calm - N/A   Clear
11:52 PM 48.0 °F 46.9 °F 96% 30.11 in 9.0 mi Calm Calm - N/A   Clear